NJE750P EGLF-LPPT

Flight info

Callsign NJE750P
Flight time 2h 13m
Altitude 39000
Route HAZEL L620 SAM M195 LORKU DCT BALDA/N0455F410 DCT ABUPI DCT XAMAX
Aircraft CL60/M-SBDE1E2E3FGHIJ1J3J4J7P2RWXYZ/LB1D1

Departure

Time 2026-04-24 21:17
Airport Farnborough Airport (EGLF)

Arrival

Time 2026-04-24 23:30
Airport Lisbon Humberto Delgado Airport (LPPT)
Time Latitude Longitude Altitude Speed Heading
2026-04-24 20:30 51.28299 -0.77596 241 ft 0 kts 287°
2026-04-24 21:05 51.28295 -0.77575 241 ft 2 kts 287°
2026-04-24 21:05 51.28292 -0.77552 241 ft 2 kts 266°
2026-04-24 21:05 51.28296 -0.77529 241 ft 2 kts 238°
2026-04-24 21:05 51.28306 -0.77513 241 ft 2 kts 210°
2026-04-24 21:06 51.28319 -0.77505 241 ft 1 kts 197°
2026-04-24 21:06 51.28320 -0.77504 241 ft 0 kts 197°
2026-04-24 21:06 51.28320 -0.77505 240 ft 0 kts 197°
2026-04-24 21:09 51.28318 -0.77506 240 ft 2 kts 197°
2026-04-24 21:10 51.28289 -0.77520 241 ft 6 kts 197°
2026-04-24 21:10 51.28244 -0.77544 241 ft 6 kts 211°
2026-04-24 21:10 51.28227 -0.77602 241 ft 6 kts 260°
2026-04-24 21:10 51.28198 -0.77682 241 ft 10 kts 224°
2026-04-24 21:11 51.28132 -0.77762 241 ft 12 kts 216°
2026-04-24 21:11 51.28073 -0.77829 241 ft 8 kts 213°
2026-04-24 21:11 51.28025 -0.77863 241 ft 7 kts 196°
2026-04-24 21:11 51.27988 -0.77874 240 ft 6 kts 184°
2026-04-24 21:12 51.27936 -0.77892 240 ft 7 kts 208°
2026-04-24 21:12 51.27883 -0.77950 241 ft 11 kts 214°
2026-04-24 21:12 51.27810 -0.78033 241 ft 14 kts 216°
2026-04-24 21:12 51.27744 -0.78109 241 ft 11 kts 215°
2026-04-24 21:13 51.27678 -0.78186 241 ft 8 kts 217°
2026-04-24 21:13 51.27649 -0.78245 240 ft 7 kts 240°
2026-04-24 21:13 51.27609 -0.78310 240 ft 9 kts 220°
2026-04-24 21:13 51.27548 -0.78392 240 ft 13 kts 220°
2026-04-24 21:14 51.27471 -0.78498 241 ft 16 kts 221°
2026-04-24 21:14 51.27391 -0.78609 240 ft 13 kts 220°
2026-04-24 21:14 51.27329 -0.78701 241 ft 12 kts 231°
2026-04-24 21:14 51.27280 -0.78834 240 ft 15 kts 242°
2026-04-24 21:15 51.27226 -0.78997 240 ft 17 kts 242°
2026-04-24 21:15 51.27187 -0.79113 240 ft 9 kts 242°
2026-04-24 21:15 51.27155 -0.79170 240 ft 6 kts 199°
2026-04-24 21:15 51.27106 -0.79155 240 ft 6 kts 152°
2026-04-24 21:16 51.27085 -0.79120 240 ft 4 kts 88°
2026-04-24 21:16 51.27094 -0.79087 241 ft 4 kts 62°
2026-04-24 21:16 51.27198 -0.78776 241 ft 82 kts 61°
2026-04-24 21:16 51.27616 -0.77528 345 ft 161 kts 62°
2026-04-24 21:17 51.28146 -0.75961 1404 ft 166 kts 63°
2026-04-24 21:17 51.28697 -0.74339 2415 ft 181 kts 63°
2026-04-24 21:17 51.29348 -0.72410 2870 ft 212 kts 63°
2026-04-24 21:17 51.29966 -0.70280 2988 ft 209 kts 77°
2026-04-24 21:18 51.29987 -0.67985 2988 ft 208 kts 104°
2026-04-24 21:18 51.29304 -0.65984 2986 ft 209 kts 133°
2026-04-24 21:18 51.28100 -0.64678 2993 ft 211 kts 150°
2026-04-24 21:18 51.26754 -0.63804 2984 ft 214 kts 167°
2026-04-24 21:19 51.25271 -0.63885 2985 ft 217 kts 194°
2026-04-24 21:19 51.23961 -0.65092 2982 ft 221 kts 224°
2026-04-24 21:19 51.23122 -0.67138 2991 ft 223 kts 241°
2026-04-24 21:19 51.22405 -0.69347 2992 ft 228 kts 240°
2026-04-24 21:20 51.20679 -0.74343 4974 ft 271 kts 235°
2026-04-24 21:20 51.19632 -0.76778 6469 ft 276 kts 233°
2026-04-24 21:20 51.18563 -0.79224 7855 ft 281 kts 234°
2026-04-24 21:21 51.17453 -0.81766 9172 ft 287 kts 235°
2026-04-24 21:21 51.16320 -0.84360 10457 ft 293 kts 235°
2026-04-24 21:21 51.15173 -0.86986 11810 ft 294 kts 235°
2026-04-24 21:21 51.14012 -0.89640 13138 ft 296 kts 234°
2026-04-24 21:22 51.12866 -0.92274 14328 ft 298 kts 237°
2026-04-24 21:22 51.11886 -0.95160 15422 ft 302 kts 242°
2026-04-24 21:22 51.10595 -0.97811 16478 ft 307 kts 221°
2026-04-24 21:22 51.08758 -0.99524 17441 ft 315 kts 200°
2026-04-24 21:23 51.06587 -0.99912 18354 ft 324 kts 177°
2026-04-24 21:23 51.04356 -0.99588 19166 ft 329 kts 185°
2026-04-24 21:23 51.02145 -1.00421 20019 ft 327 kts 210°
2026-04-24 21:23 51.00423 -1.02643 20825 ft 325 kts 235°
2026-04-24 21:24 50.99489 -1.05893 21610 ft 325 kts 258°
2026-04-24 21:24 50.99009 -1.09421 22235 ft 335 kts 259°
2026-04-24 21:24 50.98501 -1.13145 22457 ft 356 kts 259°
2026-04-24 21:24 50.97968 -1.17015 22890 ft 369 kts 259°
2026-04-24 21:25 50.97413 -1.21017 23529 ft 375 kts 259°
2026-04-24 21:25 50.96847 -1.25084 24258 ft 379 kts 259°
2026-04-24 21:25 50.96271 -1.29112 24947 ft 383 kts 256°
2026-04-24 21:25 50.95241 -1.33051 25673 ft 388 kts 241°
2026-04-24 21:26 50.93543 -1.36375 26302 ft 396 kts 224°
2026-04-24 21:26 50.91302 -1.38962 26869 ft 404 kts 216°
2026-04-24 21:26 50.88946 -1.41399 27442 ft 408 kts 216°
2026-04-24 21:26 50.86541 -1.43898 28023 ft 411 kts 216°
2026-04-24 21:27 50.84136 -1.46395 28572 ft 415 kts 216°
2026-04-24 21:27 50.81667 -1.48956 29112 ft 418 kts 216°
2026-04-24 21:27 50.79192 -1.51520 29627 ft 421 kts 216°
2026-04-24 21:27 50.76712 -1.54086 30088 ft 425 kts 216°
2026-04-24 21:28 50.74222 -1.56659 30543 ft 428 kts 216°
2026-04-24 21:28 50.71760 -1.59200 31039 ft 429 kts 216°
2026-04-24 21:28 50.69244 -1.61794 31526 ft 430 kts 216°
2026-04-24 21:28 50.66724 -1.64388 31986 ft 432 kts 216°
2026-04-24 21:29 50.64199 -1.66984 32378 ft 434 kts 214°
2026-04-24 21:29 50.61660 -1.69592 32747 ft 436 kts 214°
2026-04-24 21:29 50.59120 -1.72197 33144 ft 436 kts 214°
2026-04-24 21:29 50.56620 -1.74758 33623 ft 434 kts 214°
2026-04-24 21:30 50.54080 -1.77356 34115 ft 432 kts 214°
2026-04-24 21:30 50.51593 -1.79896 34610 ft 429 kts 214°
2026-04-24 21:30 50.49120 -1.82420 35017 ft 427 kts 214°
2026-04-24 21:30 50.46614 -1.84974 35371 ft 426 kts 214°
2026-04-24 21:31 50.44161 -1.87471 35681 ft 426 kts 214°
2026-04-24 21:31 50.41685 -1.89987 35965 ft 426 kts 214°
2026-04-24 21:31 50.39191 -1.92521 36251 ft 426 kts 214°
2026-04-24 21:31 50.36697 -1.95050 36535 ft 425 kts 214°
2026-04-24 21:32 50.34249 -1.97529 36888 ft 424 kts 214°
2026-04-24 21:32 50.31760 -2.00046 37276 ft 423 kts 214°
2026-04-24 21:32 50.29303 -2.02529 37590 ft 423 kts 214°
2026-04-24 21:32 50.26846 -2.05008 37907 ft 423 kts 214°
2026-04-24 21:33 50.24380 -2.07488 38233 ft 422 kts 213°
2026-04-24 21:33 50.21904 -2.09917 38490 ft 422 kts 213°
2026-04-24 21:33 50.19430 -2.12328 38725 ft 422 kts 213°
2026-04-24 21:33 50.16920 -2.14772 38954 ft 423 kts 213°
2026-04-24 21:34 50.14465 -2.17160 39161 ft 423 kts 213°
2026-04-24 21:34 50.09444 -2.22036 39199 ft 430 kts 213°
2026-04-24 21:35 50.04325 -2.26994 39193 ft 436 kts 213°
2026-04-24 21:35 49.99169 -2.31975 39190 ft 442 kts 213°
2026-04-24 21:36 49.93885 -2.36995 39183 ft 445 kts 210°
2026-04-24 21:36 49.88248 -2.40886 39187 ft 445 kts 205°
2026-04-24 21:37 49.82543 -2.44663 39179 ft 444 kts 205°
2026-04-24 21:37 49.76916 -2.48382 39180 ft 443 kts 205°
2026-04-24 21:38 49.71243 -2.52126 39180 ft 444 kts 205°
2026-04-24 21:38 49.65588 -2.55850 39177 ft 444 kts 205°
2026-04-24 21:39 49.59922 -2.59574 39172 ft 444 kts 204°
2026-04-24 21:39 49.54215 -2.63316 39170 ft 444 kts 205°
2026-04-24 21:40 49.48558 -2.67016 39171 ft 443 kts 204°
2026-04-24 21:40 49.42916 -2.70698 39170 ft 443 kts 204°
2026-04-24 21:41 49.37251 -2.74387 39173 ft 443 kts 204°
2026-04-24 21:41 49.31573 -2.78075 39168 ft 443 kts 204°
2026-04-24 21:42 49.25928 -2.81732 39165 ft 443 kts 204°
2026-04-24 21:42 49.20276 -2.85385 39161 ft 443 kts 204°
2026-04-24 21:43 49.14586 -2.89054 39156 ft 443 kts 204°
2026-04-24 21:43 49.08905 -2.92707 39157 ft 443 kts 204°
2026-04-24 21:44 49.03245 -2.96339 39150 ft 442 kts 204°
2026-04-24 21:44 48.97606 -2.99948 39155 ft 441 kts 203°
2026-04-24 21:45 48.91963 -3.03550 39150 ft 441 kts 203°
2026-04-24 21:45 48.86335 -3.07135 39150 ft 441 kts 203°
2026-04-24 21:46 48.80662 -3.10739 39147 ft 442 kts 203°
2026-04-24 21:46 48.75010 -3.14321 39146 ft 442 kts 203°
2026-04-24 21:47 48.69340 -3.17906 39147 ft 442 kts 203°
2026-04-24 21:47 48.63667 -3.21484 39145 ft 441 kts 203°
2026-04-24 21:48 48.58040 -3.25024 39142 ft 440 kts 203°
2026-04-24 21:48 48.52387 -3.28572 39143 ft 439 kts 203°
2026-04-24 21:49 48.46741 -3.32107 39139 ft 439 kts 203°
2026-04-24 21:49 48.41114 -3.35621 39135 ft 439 kts 203°
2026-04-24 21:50 48.35477 -3.39133 39139 ft 439 kts 203°
2026-04-24 21:50 48.29830 -3.42643 39136 ft 439 kts 203°
2026-04-24 21:51 48.24212 -3.46126 39136 ft 439 kts 203°
2026-04-24 21:51 48.18564 -3.49620 39135 ft 439 kts 203°
2026-04-24 21:52 48.12935 -3.53094 39133 ft 438 kts 203°
2026-04-24 21:52 48.07319 -3.56551 39134 ft 438 kts 203°
2026-04-24 21:53 48.01696 -3.60005 39133 ft 438 kts 202°
2026-04-24 21:53 47.96066 -3.63454 39131 ft 438 kts 202°
2026-04-24 21:54 47.90438 -3.66895 39136 ft 439 kts 202°
2026-04-24 21:54 47.84796 -3.70335 39130 ft 437 kts 202°
2026-04-24 21:55 47.79171 -3.73757 39257 ft 439 kts 202°
2026-04-24 21:55 47.76326 -3.75485 39135 ft 441 kts 202°
2026-04-24 21:55 47.73532 -3.77180 39139 ft 439 kts 201°
2026-04-24 21:56 47.67862 -3.80614 39131 ft 437 kts 201°
2026-04-24 21:56 47.62252 -3.84002 39131 ft 437 kts 202°
2026-04-24 21:57 47.56649 -3.87380 39129 ft 437 kts 202°
2026-04-24 21:57 47.51033 -3.90756 39133 ft 437 kts 201°
2026-04-24 21:58 47.45409 -3.94131 39128 ft 438 kts 201°
2026-04-24 21:58 47.39785 -3.97497 39133 ft 438 kts 201°
2026-04-24 21:59 47.34138 -4.00869 39135 ft 438 kts 201°
2026-04-24 21:59 47.28491 -4.04233 39132 ft 438 kts 201°
2026-04-24 22:00 47.22881 -4.07568 39136 ft 437 kts 201°
2026-04-24 22:00 47.17224 -4.10923 39127 ft 437 kts 201°
2026-04-24 22:01 47.11634 -4.14230 39136 ft 437 kts 201°
2026-04-24 22:01 47.05994 -4.17560 39119 ft 437 kts 201°
2026-04-24 22:02 47.00357 -4.20880 39130 ft 438 kts 201°
2026-04-24 22:02 46.94716 -4.24195 39131 ft 438 kts 201°
2026-04-24 22:03 46.89057 -4.27513 39123 ft 439 kts 201°
2026-04-24 22:03 46.83382 -4.30833 39128 ft 439 kts 201°
2026-04-24 22:04 46.77741 -4.34125 39130 ft 440 kts 201°
2026-04-24 22:04 46.72070 -4.37427 39133 ft 439 kts 201°
2026-04-24 22:05 46.66417 -4.40711 39129 ft 439 kts 201°
2026-04-24 22:05 46.60741 -4.44002 39122 ft 439 kts 201°
2026-04-24 22:06 46.55052 -4.47292 39128 ft 440 kts 201°
2026-04-24 22:06 46.49395 -4.50556 39027 ft 440 kts 201°
2026-04-24 22:07 46.43749 -4.53808 39113 ft 440 kts 201°
2026-04-24 22:07 46.38055 -4.57078 39123 ft 440 kts 201°
2026-04-24 22:07 46.35209 -4.58710 39237 ft 441 kts 201°
2026-04-24 22:08 46.32357 -4.60344 39239 ft 439 kts 201°
2026-04-24 22:08 46.29565 -4.61942 39514 ft 436 kts 201°
2026-04-24 22:08 46.26747 -4.63553 39769 ft 434 kts 201°
2026-04-24 22:08 46.23939 -4.65156 40002 ft 431 kts 201°
2026-04-24 22:09 46.21173 -4.66734 40246 ft 428 kts 201°
2026-04-24 22:09 46.18422 -4.68301 40380 ft 426 kts 201°
2026-04-24 22:09 46.15650 -4.69879 40514 ft 425 kts 201°
2026-04-24 22:09 46.12911 -4.71436 40636 ft 424 kts 201°
2026-04-24 22:10 46.10193 -4.72980 40768 ft 423 kts 201°
2026-04-24 22:10 46.07453 -4.74534 40897 ft 422 kts 201°
2026-04-24 22:10 46.04729 -4.76078 41025 ft 420 kts 201°
2026-04-24 22:10 46.02004 -4.77621 41133 ft 420 kts 201°
2026-04-24 22:11 45.99310 -4.79144 41139 ft 422 kts 201°
2026-04-24 22:11 45.93833 -4.82236 41145 ft 426 kts 201°
2026-04-24 22:12 45.88292 -4.85358 41128 ft 429 kts 201°
2026-04-24 22:12 45.82717 -4.88492 41127 ft 432 kts 201°
2026-04-24 22:13 45.77099 -4.91644 41123 ft 434 kts 201°
2026-04-24 22:13 45.71473 -4.94793 41126 ft 437 kts 201°
2026-04-24 22:14 45.65800 -4.97962 41132 ft 439 kts 201°
2026-04-24 22:14 45.60135 -5.01119 41130 ft 442 kts 201°
2026-04-24 22:15 45.54385 -5.04317 41131 ft 445 kts 201°
2026-04-24 22:15 45.48624 -5.07514 41138 ft 447 kts 201°
2026-04-24 22:16 45.42796 -5.10740 41132 ft 448 kts 201°
2026-04-24 22:16 45.37007 -5.13937 41137 ft 448 kts 201°
2026-04-24 22:17 45.31236 -5.17119 41132 ft 447 kts 201°
2026-04-24 22:17 45.25417 -5.20319 41131 ft 447 kts 201°
2026-04-24 22:18 45.19641 -5.23489 41132 ft 447 kts 201°
2026-04-24 22:18 45.13860 -5.26654 41132 ft 447 kts 201°
2026-04-24 22:19 45.08051 -5.29828 41140 ft 447 kts 201°
2026-04-24 22:19 45.02247 -5.32992 41141 ft 447 kts 201°
2026-04-24 22:20 44.96445 -5.36149 41146 ft 448 kts 201°
2026-04-24 22:20 44.90641 -5.39299 41141 ft 448 kts 201°
2026-04-24 22:21 44.84811 -5.42456 41148 ft 449 kts 201°
2026-04-24 22:21 44.79022 -5.45585 41143 ft 448 kts 201°
2026-04-24 22:22 44.73187 -5.48732 41147 ft 448 kts 202°
2026-04-24 22:22 44.67372 -5.51861 41155 ft 449 kts 202°
2026-04-24 22:23 44.61548 -5.54991 41142 ft 451 kts 202°
2026-04-24 22:23 44.55776 -5.58494 41153 ft 452 kts 205°
2026-04-24 22:24 44.50045 -5.62041 41165 ft 453 kts 205°
2026-04-24 22:24 44.44285 -5.65598 41164 ft 454 kts 204°
2026-04-24 22:25 44.38516 -5.69151 41169 ft 454 kts 204°
2026-04-24 22:25 44.32739 -5.72700 41163 ft 454 kts 204°
2026-04-24 22:26 44.26964 -5.76240 41161 ft 454 kts 204°
2026-04-24 22:26 44.21181 -5.79777 41167 ft 454 kts 204°
2026-04-24 22:27 44.15375 -5.83320 41176 ft 454 kts 204°
2026-04-24 22:27 44.09587 -5.86844 41171 ft 456 kts 205°
2026-04-24 22:28 44.03789 -5.90367 41176 ft 457 kts 204°
2026-04-24 22:28 43.97980 -5.93888 41165 ft 457 kts 204°
2026-04-24 22:29 43.89198 -5.99197 41174 ft 458 kts 204°
2026-04-24 22:29 43.83380 -6.02705 41183 ft 458 kts 205°
2026-04-24 22:30 43.77545 -6.06215 41182 ft 457 kts 205°
2026-04-24 22:30 43.71725 -6.09709 41185 ft 457 kts 205°
2026-04-24 22:31 43.65887 -6.13207 41186 ft 458 kts 205°
2026-04-24 22:31 43.60002 -6.16725 41183 ft 458 kts 205°
2026-04-24 22:32 43.54182 -6.20196 41187 ft 459 kts 205°
2026-04-24 22:32 43.48334 -6.23677 41189 ft 459 kts 205°
2026-04-24 22:33 43.42462 -6.27165 41199 ft 459 kts 205°
2026-04-24 22:33 43.36593 -6.30644 41198 ft 460 kts 205°
2026-04-24 22:34 43.30696 -6.34131 41201 ft 460 kts 205°
2026-04-24 22:34 43.24852 -6.37581 41207 ft 460 kts 205°
2026-04-24 22:35 43.18956 -6.41054 41210 ft 460 kts 205°
2026-04-24 22:35 43.13086 -6.44504 41211 ft 461 kts 205°
2026-04-24 22:36 43.07173 -6.47971 41222 ft 461 kts 205°
2026-04-24 22:36 43.01305 -6.51406 41235 ft 461 kts 205°
2026-04-24 22:37 42.95480 -6.54809 41227 ft 462 kts 205°
2026-04-24 22:37 42.89571 -6.58253 41219 ft 463 kts 205°
2026-04-24 22:38 42.83639 -6.61703 41212 ft 462 kts 205°
2026-04-24 22:38 42.77729 -6.65134 41197 ft 462 kts 205°
2026-04-24 22:39 42.71793 -6.68572 41197 ft 462 kts 204°
2026-04-24 22:39 42.65864 -6.72000 41173 ft 462 kts 205°
2026-04-24 22:40 42.59965 -6.75403 41185 ft 463 kts 204°
2026-04-24 22:40 42.54009 -6.78832 41177 ft 464 kts 204°
2026-04-24 22:41 42.48058 -6.82251 41163 ft 465 kts 205°
2026-04-24 22:41 42.42090 -6.85673 41160 ft 465 kts 204°
2026-04-24 22:42 42.36151 -6.89070 41170 ft 464 kts 205°
2026-04-24 22:42 42.30222 -6.92456 41174 ft 464 kts 205°
2026-04-24 22:43 42.24224 -6.95873 41153 ft 466 kts 204°
2026-04-24 22:43 42.18257 -6.99266 41144 ft 467 kts 204°
2026-04-24 22:44 42.12275 -7.02661 41151 ft 467 kts 205°
2026-04-24 22:44 42.06255 -7.06070 41142 ft 468 kts 204°
2026-04-24 22:45 42.00292 -7.09439 41139 ft 467 kts 205°
2026-04-24 22:45 41.94302 -7.12818 41141 ft 467 kts 205°
2026-04-24 22:46 41.88253 -7.16222 41139 ft 467 kts 205°
2026-04-24 22:46 41.82266 -7.19585 41144 ft 468 kts 205°
2026-04-24 22:47 41.76261 -7.22955 41138 ft 469 kts 205°
2026-04-24 22:47 41.70545 -7.27089 41132 ft 467 kts 212°
2026-04-24 22:48 41.64917 -7.31482 41134 ft 467 kts 212°
2026-04-24 22:48 41.59298 -7.35851 41137 ft 467 kts 212°
2026-04-24 22:49 41.53677 -7.40211 41137 ft 468 kts 212°
2026-04-24 22:49 41.48033 -7.44577 41140 ft 469 kts 212°
2026-04-24 22:50 41.42388 -7.48934 41142 ft 470 kts 212°
2026-04-24 22:50 41.36728 -7.53292 41143 ft 470 kts 212°
2026-04-24 22:51 41.31092 -7.57622 41136 ft 470 kts 212°
2026-04-24 22:51 41.25429 -7.61963 41136 ft 470 kts 212°
2026-04-24 22:52 41.19732 -7.66322 41138 ft 470 kts 212°
2026-04-24 22:52 41.14044 -7.70664 41142 ft 471 kts 212°
2026-04-24 22:53 41.08354 -7.74999 41143 ft 472 kts 212°
2026-04-24 22:53 41.02654 -7.79332 41140 ft 473 kts 212°
2026-04-24 22:54 40.96929 -7.83675 41145 ft 473 kts 212°
2026-04-24 22:54 40.91221 -7.87997 41157 ft 473 kts 212°
2026-04-24 22:55 40.85489 -7.92328 41146 ft 474 kts 212°
2026-04-24 22:55 40.79737 -7.96664 41138 ft 475 kts 212°
2026-04-24 22:56 40.74005 -8.00977 41144 ft 474 kts 212°
2026-04-24 22:56 40.68265 -8.05288 41135 ft 475 kts 212°
2026-04-24 22:57 40.62544 -8.09576 41132 ft 476 kts 212°
2026-04-24 22:57 40.56781 -8.13888 40773 ft 482 kts 212°
2026-04-24 22:58 40.53856 -8.16072 40221 ft 480 kts 212°
2026-04-24 22:58 40.50961 -8.18231 39504 ft 478 kts 212°
2026-04-24 22:58 40.48135 -8.20336 38970 ft 470 kts 212°
2026-04-24 22:58 40.45281 -8.22460 38351 ft 465 kts 212°
2026-04-24 22:59 40.42459 -8.24561 37812 ft 471 kts 212°
2026-04-24 22:59 40.39618 -8.26673 37026 ft 470 kts 212°
2026-04-24 22:59 40.33956 -8.30876 35857 ft 473 kts 212°
2026-04-24 23:00 40.31064 -8.33019 35225 ft 476 kts 213°
2026-04-24 23:00 40.28198 -8.35141 34613 ft 478 kts 213°
2026-04-24 23:00 40.25299 -8.37286 33995 ft 480 kts 213°
2026-04-24 23:00 40.22398 -8.39430 33332 ft 482 kts 213°
2026-04-24 23:01 40.19460 -8.41599 32701 ft 483 kts 212°
2026-04-24 23:01 40.16536 -8.43755 32053 ft 485 kts 212°
2026-04-24 23:01 40.13591 -8.45923 31399 ft 482 kts 212°
2026-04-24 23:01 40.10679 -8.48065 30773 ft 475 kts 212°
2026-04-24 23:02 40.07825 -8.50161 30126 ft 470 kts 212°
2026-04-24 23:02 40.04946 -8.52041 29501 ft 465 kts 203°
2026-04-24 23:02 40.01828 -8.53109 28901 ft 459 kts 188°
2026-04-24 23:02 39.98691 -8.53249 28553 ft 447 kts 177°
2026-04-24 23:03 39.95610 -8.52995 28213 ft 438 kts 176°
2026-04-24 23:03 39.92606 -8.52743 27863 ft 434 kts 176°
2026-04-24 23:03 39.89597 -8.52494 27499 ft 427 kts 176°
2026-04-24 23:03 39.86669 -8.52251 27157 ft 417 kts 175°
2026-04-24 23:04 39.83787 -8.52013 26809 ft 408 kts 175°
2026-04-24 23:04 39.81007 -8.51783 26465 ft 399 kts 175°
2026-04-24 23:04 39.78253 -8.51600 26155 ft 390 kts 180°
2026-04-24 23:04 39.75612 -8.52075 25831 ft 384 kts 196°
2026-04-24 23:05 39.73157 -8.53463 25489 ft 381 kts 210°
2026-04-24 23:05 39.70891 -8.55246 25155 ft 379 kts 212°
2026-04-24 23:05 39.68664 -8.57007 24869 ft 379 kts 212°
2026-04-24 23:05 39.66394 -8.58796 24539 ft 379 kts 211°
2026-04-24 23:06 39.64159 -8.60556 24234 ft 377 kts 212°
2026-04-24 23:06 39.61903 -8.62331 23919 ft 376 kts 211°
2026-04-24 23:06 39.59692 -8.64070 23604 ft 373 kts 211°
2026-04-24 23:06 39.57460 -8.65823 23294 ft 372 kts 210°
2026-04-24 23:07 39.55261 -8.67548 22994 ft 369 kts 211°
2026-04-24 23:07 39.53059 -8.69275 22684 ft 368 kts 210°
2026-04-24 23:07 39.50890 -8.70975 22385 ft 366 kts 211°
2026-04-24 23:07 39.48716 -8.72677 22088 ft 365 kts 211°
2026-04-24 23:08 39.46540 -8.74380 21776 ft 363 kts 211°
2026-04-24 23:08 39.44379 -8.76069 21466 ft 359 kts 211°
2026-04-24 23:08 39.42233 -8.77745 21178 ft 358 kts 211°
2026-04-24 23:08 39.40154 -8.79440 20877 ft 355 kts 217°
2026-04-24 23:09 39.38401 -8.81660 20590 ft 352 kts 230°
2026-04-24 23:09 39.36792 -8.84050 20290 ft 350 kts 230°
2026-04-24 23:09 39.35188 -8.86414 19998 ft 349 kts 229°
2026-04-24 23:09 39.33612 -8.88735 19709 ft 347 kts 229°
2026-04-24 23:10 39.32023 -8.91072 19431 ft 344 kts 229°
2026-04-24 23:10 39.30441 -8.93396 19157 ft 342 kts 229°
2026-04-24 23:10 39.28868 -8.95705 18859 ft 340 kts 229°
2026-04-24 23:10 39.27328 -8.97963 18582 ft 338 kts 229°
2026-04-24 23:11 39.25773 -9.00242 18302 ft 336 kts 229°
2026-04-24 23:11 39.24225 -9.02509 18024 ft 334 kts 229°
2026-04-24 23:11 39.22703 -9.04735 17759 ft 333 kts 229°
2026-04-24 23:11 39.21159 -9.06991 17470 ft 332 kts 229°
2026-04-24 23:12 39.19632 -9.09222 17187 ft 331 kts 229°
2026-04-24 23:12 39.18129 -9.11415 16940 ft 330 kts 229°
2026-04-24 23:12 39.16607 -9.13635 16639 ft 328 kts 229°
2026-04-24 23:12 39.15097 -9.15835 16389 ft 326 kts 229°
2026-04-24 23:13 39.13594 -9.18023 16103 ft 326 kts 229°
2026-04-24 23:13 39.12096 -9.20203 15845 ft 323 kts 229°
2026-04-24 23:13 39.10615 -9.22356 15578 ft 323 kts 229°
2026-04-24 23:13 39.09121 -9.24527 15310 ft 323 kts 229°
2026-04-24 23:14 39.07625 -9.26699 15041 ft 322 kts 229°
2026-04-24 23:14 39.06140 -9.28853 14770 ft 320 kts 229°
2026-04-24 23:14 39.04673 -9.30979 14512 ft 319 kts 229°
2026-04-24 23:14 39.03193 -9.33122 14244 ft 318 kts 229°
2026-04-24 23:15 39.01732 -9.35239 13990 ft 317 kts 229°
2026-04-24 23:15 39.00266 -9.37359 13703 ft 315 kts 229°
2026-04-24 23:15 38.98828 -9.39438 13486 ft 315 kts 229°
2026-04-24 23:15 38.97369 -9.41546 13209 ft 314 kts 229°
2026-04-24 23:16 38.95911 -9.43651 12951 ft 312 kts 229°
2026-04-24 23:16 38.94470 -9.45730 12686 ft 308 kts 229°
2026-04-24 23:16 38.93069 -9.47749 12423 ft 302 kts 229°
2026-04-24 23:16 38.91684 -9.49745 12217 ft 296 kts 229°
2026-04-24 23:17 38.90317 -9.51712 11945 ft 292 kts 229°
2026-04-24 23:17 38.88879 -9.53520 11698 ft 286 kts 216°
2026-04-24 23:17 38.87107 -9.54589 11467 ft 278 kts 193°
2026-04-24 23:17 38.85207 -9.54855 11205 ft 276 kts 180°
2026-04-24 23:18 38.83262 -9.54890 10978 ft 276 kts 180°
2026-04-24 23:18 38.81340 -9.54932 10752 ft 277 kts 180°
2026-04-24 23:18 38.79422 -9.54975 10513 ft 277 kts 180°
2026-04-24 23:18 38.77501 -9.55018 10289 ft 275 kts 180°
2026-04-24 23:19 38.75584 -9.55061 10055 ft 274 kts 180°
2026-04-24 23:19 38.73661 -9.55104 9829 ft 274 kts 180°
2026-04-24 23:19 38.71777 -9.55145 9605 ft 272 kts 180°
2026-04-24 23:19 38.69873 -9.55187 9381 ft 272 kts 180°
2026-04-24 23:20 38.67992 -9.55228 9155 ft 270 kts 180°
2026-04-24 23:20 38.66096 -9.55270 8920 ft 269 kts 180°
2026-04-24 23:20 38.64241 -9.55311 8713 ft 267 kts 180°
2026-04-24 23:20 38.62390 -9.55222 8448 ft 262 kts 168°
2026-04-24 23:21 38.60722 -9.54368 8004 ft 260 kts 143°
2026-04-24 23:21 38.59501 -9.52745 7769 ft 250 kts 120°
2026-04-24 23:21 38.58881 -9.50683 7354 ft 248 kts 99°
2026-04-24 23:21 38.58647 -9.48548 7115 ft 241 kts 96°
2026-04-24 23:22 38.58423 -9.46453 6856 ft 236 kts 96°
2026-04-24 23:22 38.58201 -9.44395 6614 ft 231 kts 97°
2026-04-24 23:22 38.57982 -9.42376 6351 ft 226 kts 97°
2026-04-24 23:22 38.57769 -9.40414 6120 ft 221 kts 97°
2026-04-24 23:23 38.57560 -9.38500 5867 ft 217 kts 96°
2026-04-24 23:23 38.57353 -9.36597 5657 ft 212 kts 96°
2026-04-24 23:23 38.57152 -9.34756 5417 ft 209 kts 96°
2026-04-24 23:23 38.56952 -9.32924 5182 ft 205 kts 96°
2026-04-24 23:24 38.56885 -9.31137 4964 ft 198 kts 75°
2026-04-24 23:24 38.57343 -9.29527 4759 ft 191 kts 65°
2026-04-24 23:24 38.57856 -9.27967 4550 ft 188 kts 65°
2026-04-24 23:24 38.58349 -9.26440 4345 ft 185 kts 65°
2026-04-24 23:25 38.58834 -9.24939 4146 ft 184 kts 64°
2026-04-24 23:25 38.59552 -9.23628 3962 ft 175 kts 32°
2026-04-24 23:25 38.60612 -9.22982 3760 ft 164 kts 21°
2026-04-24 23:25 38.61642 -9.22419 3538 ft 157 kts 22°
2026-04-24 23:26 38.62636 -9.21871 3322 ft 154 kts 21°
2026-04-24 23:26 38.63626 -9.21339 3119 ft 154 kts 21°
2026-04-24 23:26 38.64614 -9.20812 2911 ft 153 kts 21°
2026-04-24 23:26 38.65597 -9.20287 2711 ft 151 kts 21°
2026-04-24 23:27 38.66545 -9.19780 2491 ft 147 kts 20°
2026-04-24 23:27 38.67495 -9.19273 2333 ft 147 kts 20°
2026-04-24 23:27 38.68445 -9.18767 2126 ft 147 kts 19°
2026-04-24 23:27 38.69388 -9.18263 1935 ft 146 kts 19°
2026-04-24 23:28 38.70325 -9.17762 1735 ft 145 kts 19°
2026-04-24 23:28 38.71187 -9.17296 1586 ft 123 kts 19°
2026-04-24 23:28 38.71970 -9.16875 1415 ft 122 kts 20°
2026-04-24 23:28 38.72752 -9.16460 1228 ft 119 kts 18°
2026-04-24 23:29 38.73526 -9.16051 1079 ft 120 kts 19°
2026-04-24 23:29 38.74295 -9.15642 914 ft 120 kts 18°
2026-04-24 23:29 38.75093 -9.15222 754 ft 123 kts 19°
2026-04-24 23:29 38.75861 -9.14805 596 ft 120 kts 19°
2026-04-24 23:30 38.76636 -9.14391 428 ft 119 kts 18°
2026-04-24 23:30 38.77335 -9.14017 382 ft 96 kts 21°
2026-04-24 23:30 38.77856 -9.13739 381 ft 66 kts 22°
2026-04-24 23:30 38.78159 -9.13575 381 ft 26 kts 25°
2026-04-24 23:31 38.78282 -9.13470 381 ft 18 kts 41°
2026-04-24 23:31 38.78362 -9.13362 381 ft 11 kts 49°
2026-04-24 23:31 38.78374 -9.13290 381 ft 9 kts 118°
2026-04-24 23:31 38.78312 -9.13266 381 ft 11 kts 199°
2026-04-24 23:32 38.78226 -9.13312 381 ft 15 kts 202°
2026-04-24 23:32 38.78115 -9.13371 381 ft 15 kts 203°
2026-04-24 23:32 38.78034 -9.13408 381 ft 11 kts 187°
2026-04-24 23:32 38.77948 -9.13394 381 ft 13 kts 167°
2026-04-24 23:33 38.77841 -9.13366 381 ft 16 kts 169°
2026-04-24 23:33 38.77758 -9.13342 381 ft 9 kts 153°
2026-04-24 23:33 38.77739 -9.13273 381 ft 7 kts 80°
2026-04-24 23:33 38.77758 -9.13215 381 ft 7 kts 32°
2026-04-24 23:34 38.77809 -9.13217 381 ft 5 kts 348°
2026-04-24 23:34 38.77854 -9.13203 381 ft 6 kts 22°
2026-04-24 23:34 38.77882 -9.13192 381 ft 1 kts 15°
2026-04-24 23:34 38.77884 -9.13191 381 ft 0 kts 15°